Location: Slave Lake
(55.2830°N, 114.7830°W)
Time: 20:14:36
(UTC-06:00)

Amateur Radio Satellites - All Passes

Search period start: 27 August 2015 19:44
Search period end: 28 August 2015 19:44
Location: Slave Lake, 55.2830°N, 114.7830°W

Satellite Date Start Highest point End Downlink Frequencies (MHz)
Time Altitude Azimuth
PRISM 27 Aug 19:44:56 19:46:33 12° 85° (E) 19:48:22 437.425
HO-68 27 Aug 19:50:50 19:57:30 45° 56° (NE) 20:04:16 435.675
SEEDS 27 Aug 19:51:02 19:53:55 18° 57° (ENE) 19:56:53 437.485
Cubesat XI-IV 27 Aug 19:51:43 19:56:35 34° 266° (W) 20:01:25 437.490
STRAND 1 27 Aug 20:01:27 20:05:44 27° 91° (E) 20:10:05 437.568
UWE-3 27 Aug 20:02:08 20:03:07 11° 46° (NE) 20:04:17 435.000/436.395/437.385
FUNcube-1 27 Aug 20:14:02 20:14:31 10° 46° (NE) 20:15:10 145.935
BEESAT 3 27 Aug 20:19:36 20:23:10 27° 341° (NNW) 20:26:43 437.485
COMPASS 1 27 Aug 20:20:11 20:23:36 25° 61° (ENE) 20:27:05 437.405
BEESAT 2 27 Aug 20:24:29 20:28:07 29° 339° (NNW) 20:31:45 435.950
MOZHAYETS 4 27 Aug 20:25:12 20:27:48 15° 309° (NW) 20:30:16
CUBESAT XI-V 27 Aug 20:27:22 20:32:00 70° 289° (WNW) 20:36:37 437.345
AIST 2 27 Aug 20:27:33 20:31:44 54° 325° (NW) 20:35:55 435.215
Cosmos 2491 27 Aug 20:28:19 20:36:44 49° 64° (ENE) 20:45:11 435.465 / 435.565
AAUSAT CUBESAT 2 27 Aug 20:34:24 20:37:59 28° 62° (ENE) 20:41:35 437.432
GOMX 1 27 Aug 20:37:02 20:41:34 89° 275° (W) 20:46:29 467.674
CUTE-I 27 Aug 20:40:22 20:43:45 16° 276° (W) 20:46:59 437.470
CUTE 1.7 + AOD 2 27 Aug 20:41:54 20:46:04 52° 69° (ENE) 20:50:16 437.475
YUBILEINY 27 Aug 20:50:03 20:55:57 21° 72° (ENE) 21:02:10 435.215
CANX-2 27 Aug 20:55:01 20:59:19 73° 73° (ENE) 21:03:38 2200.000
CINEMA 3 27 Aug 20:55:42 21:00:13 48° 66° (ENE) 21:04:58 145.822/145.860
RS-15 27 Aug 20:58:34 21:09:40 64° 336° (NNW) 21:21:21 29.354- 29.394
O/OREOS (USA 219) 27 Aug 21:01:18 21:05:33 41° 112° (ESE) 21:09:53 437.305
Oscar 11 27 Aug 21:05:48 21:09:34 29° 62° (ENE) 21:13:21 145.826/435.025
AIST 1 27 Aug 21:07:52 21:12:00 46° 265° (W) 21:16:09
DOVE 4 27 Aug 21:13:21 21:17:57 69° 257° (WSW) 21:22:53 437.250
CUBEBUG 2 27 Aug 21:17:30 21:21:50 40° 65° (ENE) 21:26:18 437.445
PRISM 27 Aug 21:18:37 21:22:45 83° 107° (ESE) 21:26:51 437.425
BRITE-PL 27 Aug 21:23:55 21:27:36 25° 271° (W) 21:31:27 437.365/2234.400
SEEDS 27 Aug 21:24:57 21:29:14 81° 256° (WSW) 21:33:31 437.485
HUMSAT D 27 Aug 21:27:20 21:30:06 17° 55° (NE) 21:32:57 437.325/437.525
DELFI C3 27 Aug 21:31:28 21:35:04 32° 64° (ENE) 21:38:42 145.870
UWE-3 27 Aug 21:34:13 21:38:36 44° 66° (ENE) 21:43:05 435.000/436.395/437.385
ZACube-1 27 Aug 21:38:01 21:42:15 39° 65° (ENE) 21:46:33 437.345
HO-68 27 Aug 21:38:06 21:45:10 58° 258° (WSW) 21:52:16 435.675
STRAND 1 27 Aug 21:40:19 21:45:22 61° 292° (WNW) 21:50:23 437.568
FUNcube-1 27 Aug 21:45:30 21:49:48 43° 66° (ENE) 21:54:10 145.935
COMPASS 1 27 Aug 21:54:53 21:59:02 53° 260° (W) 22:03:10 437.405
BEESAT 3 27 Aug 21:58:57 22:02:10 22° 4° (N) 22:05:22 437.485
ESTCUBE 1 27 Aug 22:01:16 22:03:30 14° 50° (NE) 22:05:50 437.505/2401.250
BEESAT 2 27 Aug 22:03:59 22:07:13 22° 3° (N) 22:10:27 435.950
CUBESAT XI-V 27 Aug 22:06:03 22:08:43 15° 309° (NW) 22:11:16 437.345
AIST 2 27 Aug 22:07:32 22:11:05 25° 348° (NNW) 22:14:36 435.215
AAUSAT CUBESAT 2 27 Aug 22:09:22 22:13:25 45° 262° (W) 22:17:28 437.432
GOMX 1 27 Aug 22:17:46 22:20:36 16° 278° (W) 22:23:24 467.674
CUTE 1.7 + AOD 2 27 Aug 22:18:42 22:22:16 24° 269° (W) 22:25:47 437.475
Cosmos 2491 27 Aug 22:25:26 22:33:54 56° 269° (W) 22:42:19 435.465 / 435.565
DX 1 27 Aug 22:26:01 22:29:53 33° 62° (ENE) 22:33:49 434.975-435.025
AISAT 27 Aug 22:29:45 22:33:24 26° 59° (ENE) 22:37:08 437.250
CANX-2 27 Aug 22:32:46 22:35:46 18° 273° (W) 22:38:39 2200.000
CINEMA 3 27 Aug 22:33:26 22:37:38 31° 268° (W) 22:41:58 145.822/145.860
O/OREOS (USA 219) 27 Aug 22:40:43 22:45:02 40° 313° (NW) 22:49:23 437.305
Oscar 11 27 Aug 22:41:23 22:45:35 46° 261° (W) 22:49:49 145.826/435.025
YUBILEINY 27 Aug 22:42:39 22:51:21 72° 96° (E) 23:00:11 435.215
50 SAT 27 Aug 22:42:42 22:46:13 32° 64° (ENE) 22:49:47 437.505
CUBEBUG 1 27 Aug 22:44:58 22:48:20 23° 58° (ENE) 22:51:46 437.445
UKube-1 27 Aug 22:45:39 22:49:44 43° 65° (ENE) 22:53:52 .
CUBEBUG 2 27 Aug 22:54:14 22:58:34 37° 265° (W) 23:02:59 437.445
DOVE 4 27 Aug 22:54:49 22:56:50 12° 281° (W) 22:58:42 437.250
TIGRISAT 27 Aug 22:54:54 22:57:01 13° 82° (E) 22:59:17 435.000
PRISM 27 Aug 22:54:57 22:57:41 17° 305° (NW) 23:00:21 437.425
VELOX 1 27 Aug 22:58:44 23:02:52 41° 65° (ENE) 23:07:04 145.980
SPROUT 27 Aug 22:59:54 23:01:58 14° 51° (NE) 23:04:09 437.525
HUMSAT D 27 Aug 23:00:55 23:05:16 89° 75° (ENE) 23:09:39 437.325/437.525
SEEDS 27 Aug 23:03:49 23:05:48 13° 277° (W) 23:07:37 437.485
DELFI C3 27 Aug 23:06:17 23:10:05 37° 263° (W) 23:13:52 145.870
ANTELSAT 27 Aug 23:09:20 23:12:27 18° 86° (E) 23:15:37 437.575/2403.000
UWE-3 27 Aug 23:11:05 23:15:16 32° 267° (W) 23:19:28 435.000/436.395/437.385
RS-15 27 Aug 23:13:04 23:24:13 55° 8° (N) 23:35:55 29.354- 29.394
ZACube-1 27 Aug 23:14:24 23:18:38 36° 265° (W) 23:22:55 437.345
STRAND 1 27 Aug 23:20:44 23:23:43 15° 313° (NW) 23:26:33 437.568
FUNcube-1 27 Aug 23:22:06 23:26:13 32° 266° (W) 23:30:23 145.935
QB50P1 27 Aug 23:28:49 23:29:12 10° 81° (E) 23:29:49 145.935-145.965
Cosmos 2504 27 Aug 23:29:57 23:36:25 28° 77° (ENE) 23:43:20 435.465 / 435.565
HO-68 27 Aug 23:30:54 23:34:44 14° 282° (WNW) 23:38:13 435.675
ESTCUBE 1 27 Aug 23:35:10 23:39:37 65° 70° (ENE) 23:44:06 437.505/2401.250
BEESAT 3 27 Aug 23:37:13 23:41:02 36° 27° (NNE) 23:44:49 437.485
AUBIESAT-1 27 Aug 23:38:01 23:40:44 17° 92° (E) 23:43:25 437.475
M-CUBED/EXP-1 PRIME 27 Aug 23:38:35 23:41:43 20° 94° (E) 23:44:45 437.505
BEESAT 2 27 Aug 23:42:27 23:46:15 34° 26° (NNE) 23:50:01 435.950
AIST 2 27 Aug 23:47:16 23:50:47 24° 11° (NNE) 23:54:17 435.215
UNISAT 6 27 Aug 23:59:34 00:04:03 44° 97° (E) 00:08:27 437.425
DX 1 28 Aug 00:01:59 00:06:05 40° 262° (W) 00:10:12 434.975-435.025
AISAT 28 Aug 00:05:24 00:09:44 54° 259° (W) 00:14:07 437.250
ITUPSAT 1 28 Aug 00:06:57 00:08:05 11° 44° (NE) 00:09:22 437.325
CUSAT 1 28 Aug 00:13:02 00:13:37 10° 73° (ENE) 00:14:27 437.405
50 SAT 28 Aug 00:17:02 00:20:43 35° 264° (W) 00:24:24 437.505
TISAT 1 28 Aug 00:19:41 00:23:29 34° 64° (ENE) 00:27:21 437.305
CUBEBUG 1 28 Aug 00:20:03 00:24:21 63° 258° (WSW) 00:28:41 437.445
UKube-1 28 Aug 00:22:12 00:26:01 29° 265° (W) 00:29:49 .
O/OREOS (USA 219) 28 Aug 00:23:13 00:25:46 14° 337° (NNW) 00:28:15 437.305
Cosmos 2491 28 Aug 00:24:10 00:28:54 15° 293° (WNW) 00:33:14 435.465 / 435.565
POLYITAN 1 28 Aug 00:25:18 00:29:12 32° 95° (E) 00:33:06 437.675
POPSAT HIP 1 28 Aug 00:29:43 00:33:40 34° 95° (E) 00:37:37 437.405
TIGRISAT 28 Aug 00:29:58 00:34:41 75° 104° (ESE) 00:39:16 435.000
SPROUT 28 Aug 00:33:02 00:37:18 67° 71° (ENE) 00:41:37 437.525
DUCHIFAT 1 28 Aug 00:34:17 00:38:16 36° 96° (E) 00:42:14 145.980
VELOX 1 28 Aug 00:35:34 00:39:32 32° 265° (W) 00:43:31 145.980
HUMSAT D 28 Aug 00:39:07 00:41:41 15° 275° (W) 00:44:06 437.325/437.525
BEESAT 28 Aug 00:40:39 00:43:46 18° 52° (NE) 00:47:01 436.000
YUBILEINY 28 Aug 00:40:52 00:49:01 39° 302° (WNW) 00:57:08 435.215
ANTELSAT 28 Aug 00:45:10 00:49:53 81° 287° (WNW) 00:54:28 437.575/2403.000
QB50P2 28 Aug 00:45:23 00:49:35 47° 99° (E) 00:53:46 145.880/145.840
NANOSAT C BR1 28 Aug 00:50:01 00:54:13 50° 100° (E) 00:58:25 145.865
BUGSAT 1 28 Aug 01:01:42 01:05:44 42° 98° (E) 01:09:49 437.445
QB50P1 28 Aug 01:01:43 01:06:01 65° 102° (ESE) 01:10:18 145.935-145.965
SWISSCUBE 28 Aug 01:04:51 01:08:48 27° 58° (ENE) 01:12:48 437.505
AUBIESAT-1 28 Aug 01:11:46 01:16:05 75° 295° (WNW) 01:20:00 437.475
M-CUBED/EXP-1 PRIME 28 Aug 01:12:39 01:17:01 65° 297° (WNW) 01:20:59 437.505
ESTCUBE 1 28 Aug 01:13:28 01:16:56 21° 271° (W) 01:20:19 437.505/2401.250
BEESAT 3 28 Aug 01:15:09 01:19:10 58° 229° (SW) 01:23:07 437.485
Cosmos 2504 28 Aug 01:19:27 01:27:40 89° 96° (E) 01:36:21 435.465 / 435.565
BEESAT 2 28 Aug 01:20:29 01:24:33 65° 228° (SW) 01:28:34 435.950
AIST 2 28 Aug 01:25:58 01:30:08 53° 35° (NE) 01:34:15 435.215
RS-15 28 Aug 01:26:35 01:38:16 81° 38° (NE) 01:50:29 29.354- 29.394
KKS-1 28 Aug 01:28:46 01:29:42 11° 46° (NE) 01:30:47 437.445
UNISAT 6 28 Aug 01:36:31 01:40:45 33° 298° (WNW) 01:44:51 437.425
ITUPSAT 1 28 Aug 01:40:24 01:44:56 43° 64° (ENE) 01:49:28 437.325
GONETS M04 28 Aug 01:42:55 01:43:34 10° 61° (ENE) 01:44:48
DANDE 28 Aug 01:47:05 01:50:23 38° 92° (E) 01:54:43 436.750
CUSAT 1 28 Aug 01:50:45 01:54:40 67° 99° (E) 01:59:58 437.405
TISAT 1 28 Aug 01:55:19 01:59:14 36° 264° (W) 02:03:10 437.305
POLYITAN 1 28 Aug 02:01:07 02:05:12 40° 295° (WNW) 02:09:14 437.675
POPSAT HIP 1 28 Aug 02:05:34 02:09:35 38° 295° (WNW) 02:13:33 437.405
TIGRISAT 28 Aug 02:07:22 02:10:58 22° 304° (NW) 02:14:26 435.000
DUCHIFAT 1 28 Aug 02:10:07 02:14:04 36° 296° (WNW) 02:17:58 145.980
SPROUT 28 Aug 02:10:41 02:13:51 19° 272° (W) 02:16:58 437.525
BEESAT 28 Aug 02:16:12 02:21:00 82° 72° (ENE) 02:25:48 436.000
QB50P2 28 Aug 02:21:34 02:25:18 28° 299° (WNW) 02:28:58 145.880/145.840
ANTELSAT 28 Aug 02:22:55 02:26:00 17° 307° (NW) 02:28:56 437.575/2403.000
NANOSAT C BR1 28 Aug 02:26:11 02:29:51 27° 299° (WNW) 02:33:26 145.865
BUGSAT 1 28 Aug 02:37:22 02:41:06 30° 298° (WNW) 02:44:48 437.445
QB50P1 28 Aug 02:38:10 02:41:32 22° 302° (WNW) 02:44:50 145.935-145.965
SWISSCUBE 28 Aug 02:41:38 02:46:22 61° 258° (WSW) 02:51:07 437.505
YUBILEINY 28 Aug 02:44:27 02:49:14 15° 332° (NNW) 02:53:48 435.215
Oscar 19 28 Aug 02:45:37 02:50:29 39° 96° (E) 02:55:22 437.125/150
MOZHAYETS 4 28 Aug 02:46:28 02:46:57 10° 46° (NE) 02:47:35
AUBIESAT-1 28 Aug 02:47:21 02:50:05 16° 316° (NW) 02:52:37 437.475
M-CUBED/EXP-1 PRIME 28 Aug 02:48:26 02:51:00 15° 318° (NW) 02:53:24 437.505
Gurwin Techsat 1B 28 Aug 02:52:10 02:55:42 18° 85° (E) 02:59:23 435.225
STARS 28 Aug 02:54:07 02:57:53 29° 60° (ENE) 03:01:45 437.465
BEESAT 3 28 Aug 02:55:23 02:56:18 11° 248° (WSW) 02:57:04 437.485
BEESAT 2 28 Aug 03:00:10 03:01:53 12° 247° (WSW) 03:03:26 435.950
KKS-1 28 Aug 03:01:07 03:05:22 46° 66° (ENE) 03:09:41 437.445
AIST 2 28 Aug 03:04:44 03:08:36 35° 236° (SW) 03:12:22 435.215
Cosmos 2504 28 Aug 03:13:53 03:21:09 31° 307° (NW) 03:28:33 435.465 / 435.565
ITUPSAT 1 28 Aug 03:18:33 03:22:56 34° 265° (W) 03:27:18 437.325
PCSat 28 Aug 03:23:55 03:28:07 24° 112° (ESE) 03:32:26 145.827
AO-7 28 Aug 03:28:26 03:29:40 11° 72° (ENE) 03:31:31 29.400- 29.500
GONETS M04 28 Aug 03:30:10 03:38:00 41° 85° (E) 03:46:00
DANDE 28 Aug 03:30:25 03:33:43 28° 303° (WNW) 03:37:54 436.750
SO-50 28 Aug 03:33:13 03:37:43 39° 125° (SE) 03:42:21 436.795
Cosmos 2499 28 Aug 03:33:44 03:37:41 15° 66° (ENE) 03:42:09 435.465 / 435.565
CUSAT 1 28 Aug 03:34:32 03:38:02 22° 310° (NW) 03:42:16 437.405
ITAMSAT 1 28 Aug 03:35:00 03:39:32 30° 93° (E) 03:44:07 435.822/435.867
RS-15 28 Aug 03:39:16 03:50:13 47° 244° (WSW) 04:01:25 29.354- 29.394
JAS-2 28 Aug 03:45:05 03:51:31 31° 86° (E) 03:57:29 435.910
O/OREOS (USA 219) 28 Aug 03:45:40 03:48:38 17° 28° (NNE) 03:51:39 437.305
BEESAT 28 Aug 03:56:07 03:59:29 18° 273° (W) 04:02:45 436.000
MOZHAYETS 4 28 Aug 04:18:46 04:23:08 43° 66° (ENE) 04:27:32
SWISSCUBE 28 Aug 04:24:07 04:25:21 11° 280° (W) 04:26:18 437.505
Oscar 19 28 Aug 04:25:00 04:29:57 44° 297° (WNW) 04:34:52 437.125/150
CUBESAT XI-V 28 Aug 04:28:13 04:28:42 10° 46° (NE) 04:29:21 437.345
STARS 28 Aug 04:29:51 04:34:09 49° 260° (W) 04:38:30 437.465
Gurwin Techsat 1B 28 Aug 04:31:10 04:36:32 88° 100° (E) 04:41:52 435.225
KKS-1 28 Aug 04:38:16 04:42:12 29° 266° (W) 04:46:07 437.445
YUBILEINY 28 Aug 04:50:14 04:51:17 10° 6° (N) 04:52:26 435.215
PCSat 28 Aug 05:05:34 05:11:01 85° 315° (NW) 05:16:30 145.827
SO-50 28 Aug 05:13:19 05:18:11 59° 326° (NNW) 05:23:07 436.795
Cosmos 2504 28 Aug 05:13:29 05:16:58 13° 336° (NNW) 05:20:15 435.465 / 435.565
ITAMSAT 1 28 Aug 05:14:17 05:19:22 55° 294° (WNW) 05:24:25 435.822/435.867
AO-7 28 Aug 05:17:22 05:25:14 44° 98° (E) 05:33:06 29.400- 29.500
Cosmos 2499 28 Aug 05:20:46 05:28:50 51° 89° (E) 05:37:21 435.465 / 435.565
O/OREOS (USA 219) 28 Aug 05:24:36 05:29:08 52° 51° (NE) 05:33:40 437.305
GONETS M04 28 Aug 05:25:56 05:34:34 64° 289° (WNW) 05:43:17
JAS-2 28 Aug 05:29:49 05:37:24 76° 291° (WNW) 05:44:10 435.910
HORYU 2 28 Aug 05:32:13 05:36:34 47° 100° (E) 05:40:53 437.375
STRAND 1 28 Aug 05:47:33 05:50:57 19° 50° (NE) 05:54:27 437.568
RS-15 28 Aug 05:54:49 05:59:46 13° 268° (W) 06:03:52 29.354- 29.394
MOZHAYETS 4 28 Aug 05:56:18 06:00:30 33° 266° (W) 06:04:39
CUBESAT XI-V 28 Aug 06:00:46 06:05:07 43° 66° (ENE) 06:09:30 437.345
Oscar 19 28 Aug 06:06:09 06:08:11 12° 318° (NW) 06:10:03 437.125/150
Gurwin Techsat 1B 28 Aug 06:11:52 06:15:58 23° 307° (NW) 06:19:58 435.225
Cubesat XI-IV 28 Aug 06:23:07 06:24:27 11° 79° (E) 06:26:04 437.490
PRISM 28 Aug 06:41:01 06:44:22 25° 60° (ENE) 06:47:46 437.425
YUBILEINY 28 Aug 06:46:54 06:52:56 20° 39° (NE) 06:59:11 435.215
PCSat 28 Aug 06:50:14 06:55:08 32° 336° (NNW) 07:00:01 145.827
ITAMSAT 1 28 Aug 06:55:08 06:57:56 15° 314° (NW) 07:00:36 435.822/435.867
SO-50 28 Aug 06:55:11 06:59:34 30° 349° (N) 07:03:59 436.795
O/OREOS (USA 219) 28 Aug 07:04:21 07:08:24 30° 252° (WSW) 07:12:22 437.305
CUTE-I 28 Aug 07:07:24 07:11:38 24° 89° (E) 07:15:58 437.470
HORYU 2 28 Aug 07:09:06 07:13:04 30° 299° (WNW) 07:16:57 437.375
AO-7 28 Aug 07:10:17 07:18:28 63° 301° (WNW) 07:26:35 29.400- 29.500
Cosmos 2499 28 Aug 07:13:43 07:22:07 54° 294° (WNW) 07:30:49 435.465 / 435.565
JAS-2 28 Aug 07:15:23 07:21:25 26° 314° (NW) 07:26:55 435.910
STRAND 1 28 Aug 07:24:23 07:29:28 77° 72° (ENE) 07:34:37 437.568
GONETS M04 28 Aug 07:27:01 07:33:36 22° 317° (NW) 07:40:02
CUBESAT XI-V 28 Aug 07:38:33 07:42:42 32° 266° (W) 07:46:50 437.345
BRITE-PL 28 Aug 07:42:20 07:44:43 13° 81° (E) 07:47:23 437.365/2234.400
Cubesat XI-IV 28 Aug 08:00:38 08:05:53 57° 101° (E) 08:11:08 437.490
AIST 1 28 Aug 08:11:31 08:11:46 10° 79° (E) 08:12:11
PRISM 28 Aug 08:15:35 08:19:35 50° 259° (W) 08:23:36 437.425
GOMX 1 28 Aug 08:31:28 08:35:21 21° 86° (E) 08:39:27 467.674
PCSat 28 Aug 08:35:41 08:40:03 24° 1° (N) 08:44:26 145.827
SO-50 28 Aug 08:36:51 08:41:19 31° 14° (NNE) 08:45:46 436.795
YUBILEINY 28 Aug 08:43:37 08:52:19 55° 67° (ENE) 09:00:58 435.215
CUTE-I 28 Aug 08:46:58 08:52:18 71° 291° (WNW) 08:57:36 437.470
CUSAT 1 28 Aug 08:54:25 08:55:37 11° 33° (NNE) 08:57:08 437.405
AUBIESAT-1 28 Aug 08:57:59 09:01:06 18° 46° (NE) 09:04:14 437.475
HO-68 28 Aug 08:58:06 09:03:20 22° 84° (E) 09:08:45 435.675
M-CUBED/EXP-1 PRIME 28 Aug 08:58:51 09:02:17 20° 47° (NE) 09:05:44 437.505
JAS-2 28 Aug 09:01:40 09:04:00 12° 339° (NNW) 09:06:08 435.910
AO-7 28 Aug 09:03:30 09:09:58 26° 325° (NW) 09:16:16 29.400- 29.500
SEEDS 28 Aug 09:04:00 09:05:12 11° 82° (E) 09:06:37 437.485
DOVE 4 28 Aug 09:04:59 09:09:12 24° 88° (E) 09:13:34 437.250
Cosmos 2504 28 Aug 09:05:10 09:10:57 19° 40° (NE) 09:16:52 435.465 / 435.565
STRAND 1 28 Aug 09:05:24 09:09:19 21° 272° (W) 09:13:07 437.568
Cosmos 2499 28 Aug 09:11:35 09:17:48 20° 321° (NW) 09:23:54 435.465 / 435.565
BRITE-PL 28 Aug 09:19:01 09:24:16 63° 101° (E) 09:29:49 437.365/2234.400
UNISAT 6 28 Aug 09:30:28 09:33:41 19° 54° (NE) 09:37:01 437.425
COMPASS 1 28 Aug 09:31:43 09:34:19 16° 86° (E) 09:37:00 437.405
GONETS M04 28 Aug 09:33:26 09:35:00 10° 350° (N) 09:36:27
Cosmos 2491 28 Aug 09:39:21 09:47:11 41° 85° (E) 09:55:08 435.465 / 435.565
Cubesat XI-IV 28 Aug 09:41:05 09:45:48 33° 302° (WNW) 09:50:28 437.490
AIST 1 28 Aug 09:44:23 09:48:37 68° 98° (E) 09:52:53
AAUSAT CUBESAT 2 28 Aug 09:45:22 09:48:17 18° 88° (E) 09:51:15 437.432
POLYITAN 1 28 Aug 09:52:18 09:54:03 13° 50° (NE) 09:55:57 437.675
CUTE 1.7 + AOD 2 28 Aug 09:55:35 09:59:34 37° 96° (E) 10:03:31 437.475
POPSAT HIP 1 28 Aug 09:56:22 09:58:16 13° 51° (NE) 10:00:19 437.405
TIGRISAT 28 Aug 09:59:44 10:03:43 28° 60° (ENE) 10:07:47 435.000
DUCHIFAT 1 28 Aug 10:00:23 10:02:24 13° 51° (NE) 10:04:33 145.980
GOMX 1 28 Aug 10:08:48 10:14:08 86° 287° (WNW) 10:19:38 467.674
CANX-2 28 Aug 10:08:51 10:13:03 53° 100° (E) 10:17:11 2200.000
QB50P2 28 Aug 10:11:16 10:13:59 17° 54° (NE) 10:16:48 145.880/145.840
ANTELSAT 28 Aug 10:14:41 10:18:59 37° 64° (ENE) 10:23:21 437.575/2403.000
NANOSAT C BR1 28 Aug 10:15:27 10:18:13 17° 55° (NE) 10:21:06 145.865
SO-50 28 Aug 10:17:38 10:22:37 67° 36° (NE) 10:27:31 436.795
PCSat 28 Aug 10:19:56 10:24:55 35° 26° (NNE) 10:29:55 145.827
CINEMA 3 28 Aug 10:20:02 10:24:52 45° 97° (E) 10:29:41 145.822/145.860
Oscar 11 28 Aug 10:21:42 10:24:58 21° 89° (E) 10:28:17 145.826/435.025
BUGSAT 1 28 Aug 10:25:36 10:27:46 14° 53° (NE) 10:30:03 437.445
QB50P1 28 Aug 10:26:52 10:30:03 21° 57° (ENE) 10:33:20 145.935-145.965
CUTE-I 28 Aug 10:28:02 10:31:37 18° 311° (NW) 10:35:05 437.470
AUBIESAT-1 28 Aug 10:30:25 10:35:10 72° 64° (ENE) 10:39:49 437.475
M-CUBED/EXP-1 PRIME 28 Aug 10:31:40 10:36:29 82° 66° (ENE) 10:41:15 437.505
DANDE 28 Aug 10:33:20 10:38:14 23° 53° (NE) 10:44:08 436.750
CUSAT 1 28 Aug 10:34:36 10:40:29 30° 57° (ENE) 10:47:21 437.405
SEEDS 28 Aug 10:37:37 10:41:51 74° 103° (ESE) 10:46:03 437.485
CUBEBUG 2 28 Aug 10:37:40 10:41:59 33° 93° (E) 10:46:14 437.445
DELFI C3 28 Aug 10:38:09 10:41:02 19° 89° (E) 10:43:59 145.870
YUBILEINY 28 Aug 10:40:47 10:49:11 49° 272° (W) 10:57:28 435.215
DOVE 4 28 Aug 10:42:12 10:47:26 71° 289° (WNW) 10:52:45 437.250
HO-68 28 Aug 10:45:03 10:52:19 80° 108° (ESE) 10:59:33 435.675
UWE-3 28 Aug 10:53:08 10:57:27 35° 94° (E) 11:01:42 435.000/436.395/437.385
ZACube-1 28 Aug 10:55:29 10:59:30 30° 92° (E) 11:03:29 437.345
AO-7 28 Aug 10:55:43 11:00:02 15° 352° (N) 11:04:15 29.400- 29.500
Cosmos 2504 28 Aug 10:57:10 11:05:37 54° 67° (ENE) 11:13:47 435.465 / 435.565
BRITE-PL 28 Aug 10:58:00 11:02:32 30° 300° (WNW) 11:07:14 437.365/2234.400
FUNcube-1 28 Aug 11:02:42 11:06:51 33° 94° (E) 11:10:55 145.935
UNISAT 6 28 Aug 11:05:10 11:09:53 88° 68° (ENE) 11:14:39 437.425
COMPASS 1 28 Aug 11:06:21 11:10:33 76° 287° (WNW) 11:14:41 437.405
Cosmos 2499 28 Aug 11:14:06 11:15:34 10° 353° (N) 11:16:56 435.465 / 435.565
AAUSAT CUBESAT 2 28 Aug 11:20:11 11:24:20 65° 289° (WNW) 11:28:25 437.432
AIST 1 28 Aug 11:23:38 11:26:47 19° 300° (WNW) 11:29:52
POLYITAN 1 28 Aug 11:24:57 11:29:10 60° 70° (ENE) 11:33:26 437.675
POPSAT HIP 1 28 Aug 11:29:09 11:33:23 64° 70° (ENE) 11:37:39 437.405
CUTE 1.7 + AOD 2 28 Aug 11:31:35 11:35:27 33° 296° (WNW) 11:39:14 437.475
DUCHIFAT 1 28 Aug 11:33:16 11:37:28 67° 72° (ENE) 11:41:44 145.980
GONETS M04 28 Aug 11:33:22 11:37:08 13° 24° (NNE) 11:41:10
Cosmos 2491 28 Aug 11:35:05 11:43:45 65° 289° (WNW) 11:52:26 435.465 / 435.565
TIGRISAT 28 Aug 11:35:37 11:40:13 55° 260° (W) 11:44:54 435.000
DX 1 28 Aug 11:43:03 11:46:26 22° 91° (E) 11:49:54 434.975-435.025
QB50P2 28 Aug 11:45:02 11:49:19 90° 82° (E) 11:53:39 145.880/145.840
CANX-2 28 Aug 11:45:12 11:48:43 25° 300° (WNW) 11:52:09 2200.000
50 SAT 28 Aug 11:45:16 11:47:51 17° 88° (E) 11:50:29 437.505
GOMX 1 28 Aug 11:47:44 11:51:40 21° 305° (NW) 11:55:36 467.674
AISAT 28 Aug 11:49:12 11:52:17 18° 88° (E) 11:55:29 437.250
NANOSAT C BR1 28 Aug 11:49:16 11:53:31 87° 254° (WSW) 11:57:51 145.865
ANTELSAT 28 Aug 11:51:18 11:55:45 40° 264° (W) 12:00:13 437.575/2403.000
Oscar 11 28 Aug 11:57:15 12:01:34 62° 289° (WNW) 12:05:50 145.826/435.025
CINEMA 3 28 Aug 11:57:21 12:02:00 37° 297° (WNW) 12:06:34 145.822/145.860
SO-50 28 Aug 11:58:29 12:02:57 33° 238° (WSW) 12:07:18 436.795
BUGSAT 1 28 Aug 11:58:31 12:02:36 77° 71° (ENE) 12:06:45 437.445
QB50P1 28 Aug 12:01:17 12:05:32 68° 257° (WSW) 12:09:49 145.935-145.965
UKube-1 28 Aug 12:01:45 12:05:32 28° 94° (E) 12:09:19 .
CUBEBUG 1 28 Aug 12:02:24 12:05:02 16° 86° (E) 12:07:49 437.445
PCSat 28 Aug 12:03:26 12:08:55 84° 231° (SW) 12:14:21 145.827
AUBIESAT-1 28 Aug 12:06:32 12:10:16 22° 264° (W) 12:13:54 437.475
M-CUBED/EXP-1 PRIME 28 Aug 12:08:14 12:11:47 20° 266° (W) 12:15:12 437.505
ISS 28 Aug 12:12:18 12:14:38 18° 151° (SSE) 12:16:59 145.825
DELFI C3 28 Aug 12:12:31 12:16:29 59° 290° (WNW) 12:20:25 145.870
HUMSAT D 28 Aug 12:13:18 12:17:35 63° 101° (E) 12:21:48 437.325/437.525
SEEDS 28 Aug 12:14:10 12:17:13 19° 303° (WNW) 12:20:10 437.485
CUBEBUG 2 28 Aug 12:14:14 12:18:48 45° 294° (WNW) 12:23:16 437.445
DANDE 28 Aug 12:15:48 12:22:19 73° 73° (ENE) 12:30:26 436.750
CUSAT 1 28 Aug 12:16:48 12:23:46 88° 258° (WSW) 12:31:58 437.405
VELOX 1 28 Aug 12:18:07 12:22:03 30° 94° (E) 12:26:01 145.980
DOVE 4 28 Aug 12:20:57 12:24:27 18° 308° (NW) 12:27:52 437.250
JAS-2 28 Aug 12:23:38 12:27:35 15° 31° (NNE) 12:31:41 435.910
UWE-3 28 Aug 12:29:37 12:34:02 40° 295° (WNW) 12:38:20 435.000/436.395/437.385
ZACube-1 28 Aug 12:31:38 12:36:03 47° 293° (WNW) 12:40:22 437.345
Oscar 19 28 Aug 12:31:54 12:36:01 25° 55° (NE) 12:40:13 437.125/150
HO-68 28 Aug 12:33:14 12:39:34 34° 310° (NW) 12:45:47 435.675
FUNcube-1 28 Aug 12:38:56 12:43:16 42° 294° (WNW) 12:47:29 145.935
YUBILEINY 28 Aug 12:40:01 12:43:53 13° 296° (WNW) 12:47:17 435.215
COMPASS 1 28 Aug 12:43:17 12:45:34 14° 307° (NW) 12:47:43 437.405
Gurwin Techsat 1B 28 Aug 12:43:26 12:46:12 15° 45° (NE) 12:49:07 435.225
UNISAT 6 28 Aug 12:44:17 12:47:22 17° 275° (W) 12:50:20 437.425
AO-7 28 Aug 12:44:38 12:49:42 18° 21° (NNE) 12:54:51 29.400- 29.500
Cosmos 2504 28 Aug 12:49:40 12:57:56 51° 271° (W) 13:05:48 435.465 / 435.565
ESTCUBE 1 28 Aug 12:57:10 13:01:35 51° 100° (E) 13:05:58 437.505/2401.250
AAUSAT CUBESAT 2 28 Aug 12:57:21 12:59:12 13° 308° (NW) 13:00:56 437.432
POLYITAN 1 28 Aug 13:02:07 13:05:28 21° 270° (W) 13:08:44 437.675
POPSAT HIP 1 28 Aug 13:06:29 13:09:42 20° 271° (W) 13:12:50 437.405
Cosmos 2499 28 Aug 13:09:39 13:13:49 14° 25° (NNE) 13:18:10 435.465 / 435.565
DUCHIFAT 1 28 Aug 13:10:40 13:13:45 19° 272° (W) 13:16:46 145.980
DX 1 28 Aug 13:18:45 13:23:05 61° 291° (WNW) 13:27:24 434.975-435.025
50 SAT 28 Aug 13:18:54 13:22:49 65° 289° (WNW) 13:26:39 437.505
ITAMSAT 1 28 Aug 13:22:38 13:26:25 21° 52° (NE) 13:30:18 435.822/435.867
QB50P2 28 Aug 13:23:29 13:25:54 14° 275° (W) 13:28:12 145.880/145.840
AISAT 28 Aug 13:24:55 13:29:25 75° 288° (WNW) 13:33:53 437.250
NANOSAT C BR1 28 Aug 13:27:50 13:30:05 14° 275° (W) 13:32:12 145.865
GONETS M04 28 Aug 13:29:57 13:37:41 33° 55° (NE) 13:45:32
TISAT 1 28 Aug 13:32:21 13:35:44 23° 91° (E) 13:39:10 437.305
Oscar 11 28 Aug 13:34:59 13:36:59 13° 309° (NW) 13:38:50 145.826/435.025
BUGSAT 1 28 Aug 13:36:04 13:38:38 16° 273° (W) 13:41:07 437.445
Cosmos 2491 28 Aug 13:36:07 13:42:45 23° 317° (NW) 13:49:12 435.465 / 435.565
CUBEBUG 1 28 Aug 13:37:37 13:42:03 85° 288° (WNW) 13:46:28 437.445
UKube-1 28 Aug 13:37:40 13:41:50 46° 294° (WNW) 13:45:59 .
QB50P1 28 Aug 13:41:20 13:42:19 11° 278° (W) 13:43:06 145.935-145.965
ISS 28 Aug 13:47:26 13:50:30 39° 171° (S) 13:53:34 145.825
PCSat 28 Aug 13:47:43 13:51:40 20° 250° (WSW) 13:55:30 145.827
SPROUT 28 Aug 13:48:16 13:52:30 48° 99° (E) 13:56:43 437.525
DELFI C3 28 Aug 13:49:30 13:50:47 11° 309° (NW) 13:51:57 145.870
HUMSAT D 28 Aug 13:49:35 13:52:59 22° 301° (WNW) 13:56:15 437.325/437.525
CUBEBUG 2 28 Aug 13:53:03 13:54:26 11° 314° (NW) 13:55:39 437.445
VELOX 1 28 Aug 13:54:30 13:58:46 45° 294° (WNW) 14:03:01 145.980
DANDE 28 Aug 13:59:18 14:05:15 34° 270° (W) 14:12:09 436.750
CUSAT 1 28 Aug 14:00:02 14:05:50 27° 274° (W) 14:12:06 437.405
JAS-2 28 Aug 14:03:46 14:10:39 37° 54° (NE) 14:17:38 435.910
Oscar 19 28 Aug 14:09:45 14:14:56 76° 254° (WSW) 14:20:11 437.125/150
ZACube-1 28 Aug 14:10:10 14:11:24 11° 313° (NW) 14:12:29 437.345
BEESAT 28 Aug 14:10:43 14:12:43 13° 82° (E) 14:14:56 436.000
Gurwin Techsat 1B 28 Aug 14:20:03 14:25:12 55° 66° (ENE) 14:30:25 435.225
HO-68 28 Aug 14:21:53 14:25:20 14° 334° (NNW) 14:28:38 435.675
AO-7 28 Aug 14:32:58 14:40:21 38° 47° (NE) 14:47:48 29.400- 29.500
ESTCUBE 1 28 Aug 14:34:23 14:38:15 28° 300° (WNW) 14:42:04 437.505/2401.250
SWISSCUBE 28 Aug 14:35:00 14:38:36 21° 89° (E) 14:42:17 437.505
Cosmos 2504 28 Aug 14:43:59 14:48:10 14° 294° (WNW) 14:51:53 435.465 / 435.565
50 SAT 28 Aug 14:55:11 14:56:38 12° 308° (NW) 14:57:57 437.505
DX 1 28 Aug 14:56:31 14:58:33 13° 311° (NW) 15:00:29 434.975-435.025
ITAMSAT 1 28 Aug 15:00:10 15:05:22 89° 54° (NE) 15:10:35 435.822/435.867
HORYU 2 28 Aug 15:02:22 15:05:37 20° 55° (NE) 15:08:58 437.375
AISAT 28 Aug 15:02:38 15:05:20 16° 308° (NW) 15:07:55 437.250
Cosmos 2499 28 Aug 15:02:40 15:10:32 34° 55° (NE) 15:18:13 435.465 / 435.565
TISAT 1 28 Aug 15:07:37 15:11:49 56° 291° (WNW) 15:16:00 437.305
ITUPSAT 1 28 Aug 15:11:10 15:15:36 37° 96° (E) 15:20:01 437.325
CUBEBUG 1 28 Aug 15:14:58 15:17:50 17° 306° (NW) 15:20:35 437.445
UKube-1 28 Aug 15:16:25 15:17:02 10° 314° (NW) 15:17:30 .
ISS 28 Aug 15:23:31 15:26:34 39° 190° (S) 15:29:38 145.825
SPROUT 28 Aug 15:24:39 15:28:24 28° 299° (WNW) 15:32:06 437.525
GONETS M04 28 Aug 15:26:51 15:35:41 83° 260° (W) 15:44:31
VELOX 1 28 Aug 15:33:37 15:34:20 10° 314° (NW) 15:34:55 145.980
Cosmos 2491 28 Aug 15:42:36 15:44:08 10° 349° (N) 15:45:33 435.465 / 435.565
BEESAT 28 Aug 15:46:45 15:51:32 71° 104° (ESE) 15:56:18 436.000
JAS-2 28 Aug 15:47:23 15:55:09 79° 256° (WSW) 16:03:05 435.910
Oscar 19 28 Aug 15:52:14 15:55:17 15° 277° (W) 15:58:09 437.125/150
Gurwin Techsat 1B 28 Aug 16:00:46 16:05:30 32° 267° (W) 16:10:13 435.225
RS-15 28 Aug 16:05:01 16:11:06 18° 96° (E) 16:17:56 29.354- 29.394
SWISSCUBE 28 Aug 16:12:13 16:16:58 70° 290° (WNW) 16:21:42 437.505
STARS 28 Aug 16:12:38 16:15:51 19° 89° (E) 16:19:08 437.465
Cubesat XI-IV 28 Aug 16:15:36 16:16:49 11° 39° (NE) 16:18:13 437.490
KKS-1 28 Aug 16:21:17 16:25:24 34° 95° (E) 16:29:31 437.445
AO-7 28 Aug 16:24:13 16:32:37 82° 250° (WSW) 16:41:01 29.400- 29.500
HORYU 2 28 Aug 16:37:16 16:41:48 79° 255° (WSW) 16:46:21 437.375
ITAMSAT 1 28 Aug 16:42:02 16:45:39 18° 274° (W) 16:49:08 435.822/435.867
TISAT 1 28 Aug 16:45:11 16:46:47 12° 311° (NW) 16:48:14 437.305
ITUPSAT 1 28 Aug 16:49:04 16:53:33 41° 296° (WNW) 16:58:00 437.325
BEESAT 3 28 Aug 16:51:54 16:55:06 23° 120° (ESE) 16:58:21 437.485
Cosmos 2499 28 Aug 16:55:54 17:04:50 83° 261° (W) 17:13:17 435.465 / 435.565
BEESAT 2 28 Aug 16:58:34 17:01:38 21° 119° (ESE) 17:04:47 435.950
CUTE-I 28 Aug 16:58:45 17:02:18 19° 49° (NE) 17:05:59 437.470
ISS 28 Aug 17:00:09 17:02:27 18° 209° (SSW) 17:04:42 145.825
GONETS M04 28 Aug 17:24:38 17:31:26 25° 284° (WNW) 17:38:00
BEESAT 28 Aug 17:25:12 17:28:59 24° 304° (NW) 17:32:42 436.000
JAS-2 28 Aug 17:35:20 17:41:27 24° 279° (W) 17:47:27 435.910
Cosmos 2491 28 Aug 17:42:39 17:46:18 13° 23° (NNE) 17:50:11 435.465 / 435.565
MOZHAYETS 4 28 Aug 17:43:26 17:47:42 37° 95° (E) 17:51:57
STARS 28 Aug 17:48:19 17:52:48 70° 288° (WNW) 17:57:13 437.465
Cubesat XI-IV 28 Aug 17:50:48 17:55:39 38° 61° (ENE) 18:00:34 437.490
HO-68 28 Aug 17:51:09 17:54:50 15° 29° (NNE) 17:58:40 435.675
SWISSCUBE 28 Aug 17:51:13 17:54:06 16° 310° (NW) 17:56:52 437.505
KKS-1 28 Aug 17:57:52 18:02:07 41° 295° (WNW) 18:06:19 437.445
RS-15 28 Aug 18:10:24 18:20:58 58° 121° (ESE) 18:32:07 29.354- 29.394
HORYU 2 28 Aug 18:16:57 18:19:15 13° 276° (W) 18:21:24 437.375
AO-7 28 Aug 18:20:09 18:26:50 25° 274° (W) 18:33:16 29.400- 29.500
BEESAT 3 28 Aug 18:28:35 18:32:41 74° 320° (NW) 18:36:47 437.485
ITUPSAT 1 28 Aug 18:29:38 18:30:21 10° 317° (NW) 18:30:55 437.325
BEESAT 2 28 Aug 18:35:08 18:39:16 80° 318° (NW) 18:43:25 435.950
CUTE-I 28 Aug 18:36:21 18:41:39 75° 71° (ENE) 18:47:00 437.470
DOVE 4 28 Aug 18:43:54 18:45:25 12° 44° (NE) 18:47:07 437.250
AIST 2 28 Aug 18:46:36 18:50:39 44° 127° (SE) 18:54:43 435.215
Cosmos 2499 28 Aug 18:49:58 18:56:52 26° 284° (WNW) 19:03:18 435.465 / 435.565
BRITE-PL 28 Aug 19:00:18 19:03:57 26° 58° (ENE) 19:07:56 437.365/2234.400
MOZHAYETS 4 28 Aug 19:20:42 19:24:58 38° 296° (WNW) 19:29:10
CUTE 1.7 + AOD 2 28 Aug 19:22:08 19:24:09 13° 52° (NE) 19:26:19 437.475
STARS 28 Aug 19:26:00 19:28:31 15° 309° (NW) 19:30:56 437.465
CUBESAT XI-V 28 Aug 19:27:05 19:31:26 39° 96° (E) 19:35:48 437.345
STRAND 1 28 Aug 19:28:37 19:31:30 15° 84° (E) 19:34:35 437.568
Cubesat XI-IV 28 Aug 19:30:33 19:35:43 47° 261° (W) 19:40:53 437.490
CANX-2 28 Aug 19:34:35 19:37:24 18° 56° (NE) 19:40:19 2200.000
